KC1SQ Weather Reports


Display with metric or nautical units.
time (UTC)temp
F
wind
direction
speed
MPH
gust
MPH
rain 1hr
in
rain 24hr
in
rain mn
in
humidity
%
barometer
mb
20260901005940 62 236 0.0 0.0 0.00 0.00 0.00 60 1017.7
20260901005434 62 236 0.0 0.0 0.00 0.00 0.00 59 1017.8
20260901004928 62 236 0.0 0.0 0.00 0.00 0.00 59 1017.8
20260901004422 63 236 0.0 0.0 0.00 0.00 0.00 59 1017.8
20260901003917 63 236 0.0 0.0 0.00 0.00 0.00 58 1017.7
20260901003410 63 236 0.0 0.0 0.00 0.00 0.00 58 1017.7
20260901002905 64 236 0.0 0.0 0.00 0.00 0.00 57 1017.8
20260901002358 64 236 0.0 0.0 0.00 0.00 0.00 57 1017.7
20260901001852 64 236 0.0 0.0 0.00 0.00 0.00 57 1017.6
20260901001346 65 236 0.0 0.0 0.00 0.00 0.00 56 1017.7
20260901000839 65 236 0.0 0.0 0.00 0.00 0.00 56 1017.6
20260901000336 65 236 0.0 0.0 0.00 0.00 0.00 55 1017.5
20260831235829 66 236 0.0 0.0 0.00 0.00 0.00 54 1017.4
20260831235322 66 236 0.0 0.0 0.00 0.00 0.00 54 1017.4
20260831234816 67 236 0.0 0.0 0.00 0.00 0.00 53 1017.4
20260831234310 67 236 0.0 0.0 0.00 0.00 0.00 53 1017.3
20260831233804 67 236 0.0 0.0 0.00 0.00 0.00 52 1017.3
20260831233258 67 236 0.0 0.0 0.00 0.00 0.00 52 1017.3
20260831232752 68 236 0.0 0.0 0.00 0.00 0.00 51 1017.4
20260831232245 69 236 0.0 0.0 0.00 0.00 0.00 51 1017.5
20260831231740 69 236 0.0 0.0 0.00 0.00 0.00 51 1017.4
20260831231235 69 236 0.0 0.0 0.00 0.00 0.00 50 1017.5
20260831230735 70 236 0.0 0.0 0.00 0.00 0.00 50 1017.6
20260831230235 70 236 0.0 0.0 0.00 0.00 0.00 49 1017.7
20260831230005 71 236 0.0 0.0 0.00 0.00 0.00 48 1017.7
20260831225236 71 236 0.0 0.0 0.00 0.00 0.00 48 1017.6
20260831224734 72 236 0.0 0.0 0.00 0.00 0.00 46 1017.7
20260831224232 72 236 0.0 0.0 0.00 0.00 0.00 46 1017.6
20260831223734 72 236 0.0 0.0 0.00 0.00 0.00 45 1017.5
20260831223231 73 236 0.0 0.0 0.00 0.00 0.00 45 1017.5
20260831222949 73 236 0.0 0.0 0.00 0.00 0.00 44 1017.5
20260831222230 73 236 0.0 0.0 0.00 0.00 0.00 44 1017.5
20260831221731 74 236 0.0 0.0 0.00 0.00 0.00 44 1017.5
20260831221227 74 236 0.0 0.0 0.00 0.00 0.00 43 1017.6
20260831220948 74 267 0.0 0.0 0.00 0.00 0.00 42 1017.6
20260831220222 75 5 0.0 0.0 0.00 0.00 0.00 41 1017.5
20260831215948 75 5 0.0 0.0 0.00 0.00 0.00 40 1017.5
20260831215221 76 5 0.0 0.0 0.00 0.00 0.00 39 1017.6
20260831214722 76 273 0.0 0.0 0.00 0.00 0.00 37 1017.5
20260831214222 77 273 0.0 0.0 0.00 0.00 0.00 36 1017.5
20260831213716 78 273 0.0 0.0 0.00 0.00 0.00 35 1017.5
20260831213434 79 273 0.0 0.0 0.00 0.00 0.00 34 1017.6
20260831212705 80 253 0.0 0.0 0.00 0.00 0.00 34 1017.5
20260831212654 79 253 0.0 0.0 0.00 0.00 0.00 34 1017.5
20260831211706 79 253 0.0 1.0 0.00 0.00 0.00 35 1017.5
20260831211204 79 254 0.0 1.0 0.00 0.00 0.00 33 1017.5
20260831210703 80 232 0.0 0.0 0.00 0.00 0.00 33 1017.6
20260831210202 80 234 0.0 0.0 0.00 0.00 0.00 34 1017.7
20260831205700 80 234 0.0 1.0 0.00 0.00 0.00 33 1017.5
20260831205159 80 146 0.0 1.0 0.00 0.00 0.00 33 1017.6
20260831204658 80 146 0.0 0.0 0.00 0.00 0.00 34 1017.6
20260831204200 80 146 0.0 0.0 0.00 0.00 0.00 34 1017.6
20260831203700 81 146 0.0 0.0 0.00 0.00 0.00 32 1017.6
20260831203159 82 193 0.0 0.0 0.00 0.00 0.00 30 1017.6
20260831202700 82 193 0.0 0.0 0.00 0.00 0.00 31 1017.6
20260831202414 81 190 0.0 0.0 0.00 0.00 0.00 32 1017.7
20260831202135 80 187 0.0 0.0 0.00 0.00 0.00 30 1017.6
20260831201155 81 187 0.0 0.0 0.00 0.00 0.00 26 1017.7
20260831200655 80 187 0.0 0.0 0.00 0.00 0.00 27 1017.6
20260831200156 80 187 0.0 0.0 0.00 0.00 0.00 26 1017.5
20260831195654 81 187 0.0 0.0 0.00 0.00 0.00 25 1017.6
20260831195423 81 187 0.0 0.0 0.00 0.00 0.00 26 1017.6
20260831194922 81 187 0.0 0.0 0.00 0.00 0.00 26 1017.8
20260831194156 80 187 0.0 0.0 0.00 0.00 0.00 28 1017.8
20260831193652 80 187 0.0 0.0 0.00 0.00 0.00 26 1017.8
20260831193151 80 187 0.0 0.0 0.00 0.00 0.00 27 1017.9
20260831192652 80 187 0.0 0.0 0.00 0.00 0.00 26 1018.0
20260831192409 80 187 0.0 0.0 0.00 0.00 0.00 25 1018.1
20260831191651 81 187 0.0 0.0 0.00 0.00 0.00 24 1018.2
20260831191150 81 187 0.0 0.0 0.00 0.00 0.00 26 1018.2
20260831190652 81 187 0.0 0.0 0.00 0.00 0.00 24 1018.3
20260831190151 80 187 0.0 0.0 0.00 0.00 0.00 26 1018.2
20260831185911 80 187 0.0 0.0 0.00 0.00 0.00 24 1018.3
20260831185145 80 187 0.0 0.0 0.00 0.00 0.00 24 1018.4
20260831184902 79 187 0.0 0.0 0.00 0.00 0.00 26 1018.4
20260831184133 79 187 0.0 0.0 0.00 0.00 0.00 25 1018.5
20260831183627 78 187 0.0 0.0 0.00 0.00 0.00 29 1018.4
20260831183344 78 187 0.0 0.0 0.00 0.00 0.00 27 1018.5
20260831182615 78 188 0.0 0.0 0.00 0.00 0.00 28 1018.6
20260831182109 78 188 0.0 0.0 0.00 0.00 0.00 27 1018.7
20260831181604 78 188 0.0 0.0 0.00 0.00 0.00 28 1018.6
20260831181057 78 188 0.0 0.0 0.00 0.00 0.00 29 1018.6
20260831181038 77 187 0.0 0.0 0.00 0.00 0.00 29 1018.8
20260831180538 77 187 0.0 0.0 0.00 0.00 0.00 27 1018.8
20260831175757 78 187 0.0 0.0 0.00 0.00 0.00 30 1018.9
20260831175035 78 187 0.0 0.0 0.00 0.00 0.00 28 1018.9
20260831174527 79 187 0.0 0.0 0.00 0.00 0.00 28 1019.1
20260831174021 79 188 0.0 0.0 0.00 0.00 0.00 28 1019.1
20260831173956 79 188 0.0 0.0 0.00 0.00 0.00 29 1019.1
20260831173009 80 188 0.0 0.0 0.00 0.00 0.00 27 1019.1
20260831172504 80 188 0.0 0.0 0.00 0.00 0.00 30 1019.0
20260831172218 79 188 0.0 0.0 0.00 0.00 0.00 31 1019.1
20260831171451 79 188 0.0 0.0 0.00 0.00 0.00 29 1019.1
20260831171210 79 188 0.0 0.0 0.00 0.00 0.00 30 1019.2
20260831170439 78 188 0.0 0.0 0.00 0.00 0.00 32 1019.2
20260831170151 76 188 0.0 0.0 0.00 0.00 0.00 35 1019.4
20260831165427 74 188 0.0 0.0 0.00 0.00 0.00 36 1019.4
20260831165141 74 188 0.0 0.0 0.00 0.00 0.00 39 1019.5
20260831164415 73 187 0.0 0.0 0.00 0.00 0.00 37 1019.6
20260831163909 73 187 0.0 0.0 0.00 0.00 0.00 36 1019.6
20260831163403 73 187 0.0 0.0 0.00 0.00 0.00 38 1019.7
20260831162857 73 188 0.0 0.0 0.00 0.00 0.00 38 1019.7
20260831162352 73 215 0.0 0.0 0.00 0.00 0.00 39 1019.9
20260831161845 72 215 0.0 0.0 0.00 0.00 0.00 41 1019.9
20260831161339 71 234 0.0 0.0 0.00 0.00 0.00 42 1019.9
20260831160833 71 233 0.0 0.0 0.00 0.00 0.00 42 1019.8
20260831160327 70 215 0.0 0.0 0.00 0.00 0.00 42 1019.9
20260831155821 70 215 0.0 0.0 0.00 0.00 0.00 41 1019.9
20260831155545 69 216 0.0 0.0 0.00 0.00 0.00 42 1019.9
20260831154809 69 216 0.0 0.0 0.00 0.00 0.00 41 1020.0
20260831154303 69 214 0.0 0.0 0.00 0.00 0.00 43 1020.1
20260831153757 69 214 0.0 0.0 0.00 0.00 0.00 43 1020.1
20260831153251 69 214 0.0 0.0 0.00 0.00 0.00 42 1020.1
20260831152746 68 214 0.0 0.0 0.00 0.00 0.00 42 1020.1
20260831152241 68 215 0.0 0.0 0.00 0.00 0.00 42 1020.2
20260831151733 68 215 0.0 0.0 0.00 0.00 0.00 42 1020.4
20260831151227 68 215 0.0 0.0 0.00 0.00 0.00 44 1020.5
20260831150721 68 206 0.0 0.0 0.00 0.00 0.00 48 1020.7
20260831150215 67 174 0.0 0.0 0.00 0.00 0.00 47 1020.7
20260831145709 67 173 0.0 0.0 0.00 0.00 0.00 46 1020.7
20260831145204 67 174 0.0 0.0 0.00 0.00 0.00 48 1020.7
20260831144657 67 174 0.0 0.0 0.00 0.00 0.00 48 1020.8
20260831144152 67 174 0.0 0.0 0.00 0.00 0.00 49 1020.8
20260831143645 66 174 0.0 0.0 0.00 0.00 0.00 50 1020.9
20260831143138 66 174 0.0 0.0 0.00 0.00 0.00 52 1020.9
20260831142636 66 174 0.0 0.0 0.00 0.00 0.00 52 1020.9
20260831142127 65 174 0.0 0.0 0.00 0.00 0.00 52 1020.8
20260831141621 65 194 0.0 0.0 0.00 0.00 0.00 52 1020.7
20260831141115 65 194 0.0 0.0 0.00 0.00 0.00 52 1020.7
20260831140609 65 194 0.0 0.0 0.00 0.00 0.00 55 1020.8
20260831135558 64 194 0.0 0.0 0.00 0.00 0.00 54 1020.7
20260831135051 64 51 0.0 0.0 0.00 0.00 0.00 58 1020.7
20260831134812 63 173 0.0 0.0 0.00 0.00 0.00 56 1020.7
20260831134039 63 173 0.0 0.0 0.00 0.00 0.00 57 1020.8
20260831133533 63 169 0.0 0.0 0.00 0.00 0.00 60 1020.7
20260831133249 62 169 0.0 0.0 0.00 0.00 0.00 59 1020.7
20260831132521 62 169 0.0 0.0 0.00 0.00 0.00 60 1020.6
20260831132015 62 169 0.0 0.0 0.00 0.00 0.00 61 1020.6
20260831131734 62 169 0.0 0.0 0.00 0.00 0.00 61 1020.4
20260831131004 61 169 0.0 0.0 0.00 0.00 0.00 61 1020.5
20260831130457 61 169 0.0 0.0 0.00 0.00 0.00 61 1020.4
20260831125951 61 169 0.0 0.0 0.00 0.00 0.00 61 1020.5
20260831125445 61 248 0.0 0.0 0.00 0.00 0.00 62 1020.4
20260831125255 60 248 0.0 0.0 0.00 0.00 0.00 62 1020.4
20260831123927 60 248 0.0 0.0 0.00 0.00 0.00 62 1020.4
20260831123636 60 101 0.0 0.0 0.00 0.00 0.00 63 1020.2
20260831122915 60 101 0.0 0.0 0.00 0.00 0.00 64 1020.0
20260831122409 59 101 0.0 0.0 0.00 0.00 0.00 65 1020.0
20260831121903 59 34 0.0 0.0 0.00 0.00 0.00 65 1020.1
20260831121357 58 5 0.0 0.0 0.00 0.00 0.00 66 1020.0
20260831120851 58 5 0.0 0.0 0.00 0.00 0.00 68 1020.0
20260831120345 58 5 0.0 0.0 0.00 0.00 0.00 69 1020.1
20260831115839 58 5 0.0 0.0 0.00 0.00 0.00 70 1020.1
20260831115333 57 5 0.0 0.0 0.00 0.00 0.00 71 1020.0
20260831115044 57 5 0.0 0.0 0.00 0.00 0.00 71 1020.0
20260831114320 56 5 0.0 0.0 0.00 0.00 0.00 71 1020.0
20260831114044 56 5 0.0 0.0 0.00 0.00 0.00 71 1020.0
20260831113309 56 5 0.0 0.0 0.00 0.00 0.00 71 1020.0
20260831112802 56 5 0.0 0.0 0.00 0.00 0.00 71 1020.0
20260831112257 55 5 0.0 0.0 0.00 0.00 0.00 71 1019.9
20260831111750 55 5 0.0 0.0 0.00 0.00 0.00 70 1019.8
20260831111509 55 5 0.0 0.0 0.00 0.00 0.00 70 1019.8
20260831110739 54 5 0.0 0.0 0.00 0.00 0.00 68 1019.8
20260831110458 54 5 0.0 0.0 0.00 0.00 0.00 68 1019.7
20260831105727 54 5 0.0 0.0 0.00 0.00 0.00 68 1019.7
20260831105221 54 5 0.0 0.0 0.00 0.00 0.00 67 1019.6
20260831104715 54 5 0.0 0.0 0.00 0.00 0.00 67 1019.6
20260831104208 54 5 0.0 0.0 0.00 0.00 0.00 67 1019.7
20260831103703 54 5 0.0 0.0 0.00 0.00 0.00 67 1019.6
20260831103156 54 5 0.0 0.0 0.00 0.00 0.00 67 1019.6
20260831102656 54 5 0.0 0.0 0.00 0.00 0.00 67 1019.4
20260831102156 54 5 0.0 0.0 0.00 0.00 0.00 67 1019.4
20260831101657 54 5 0.0 0.0 0.00 0.00 0.00 67 1019.4
20260831101422 55 5 0.0 0.0 0.00 0.00 0.00 67 1019.4
20260831100914 55 5 0.0 0.0 0.00 0.00 0.00 67 1019.5
20260831100157 55 5 0.0 0.0 0.00 0.00 0.00 67 1019.5
20260831095655 55 5 0.0 0.0 0.00 0.00 0.00 67 1019.4
20260831095156 55 5 0.0 0.0 0.00 0.00 0.00 67 1019.4
20260831094656 55 5 0.0 0.0 0.00 0.00 0.00 67 1019.3
20260831094417 55 5 0.0 0.0 0.00 0.00 0.00 67 1019.2
20260831093915 55 5 0.0 0.0 0.00 0.00 0.00 67 1019.3
20260831093155 55 5 0.0 0.0 0.00 0.00 0.00 66 1019.2
20260831092656 55 5 0.0 0.0 0.00 0.00 0.00 66 1019.2
20260831092157 56 5 0.0 0.0 0.00 0.00 0.00 66 1019.1
20260831091657 56 5 0.0 0.0 0.00 0.00 0.00 66 1019.2
20260831091157 56 5 0.0 0.0 0.00 0.00 0.00 65 1019.1
20260831090657 56 5 0.0 0.0 0.00 0.00 0.00 65 1019.0
20260831090155 56 5 0.0 0.0 0.00 0.00 0.00 65 1019.0
20260831085657 56 5 0.0 0.0 0.00 0.00 0.00 65 1019.0
20260831085157 57 5 0.0 0.0 0.00 0.00 0.00 65 1018.9
20260831084917 57 5 0.0 0.0 0.00 0.00 0.00 65 1018.9
20260831084418 57 5 0.0 0.0 0.00 0.00 0.00 65 1018.8
20260831083914 57 5 0.0 0.0 0.00 0.00 0.00 65 1018.7
20260831083155 57 5 0.0 0.0 0.00 0.00 0.00 65 1018.6
20260831082657 57 5 0.0 0.0 0.00 0.00 0.00 65 1018.6
20260831082154 57 5 0.0 0.0 0.00 0.00 0.00 65 1018.6
20260831081648 58 5 0.0 0.0 0.00 0.00 0.00 65 1018.6
20260831081142 58 5 0.0 0.0 0.00 0.00 0.00 64 1018.6
20260831080636 58 5 0.0 0.0 0.00 0.00 0.00 64 1018.5
20260831080130 58 5 0.0 0.0 0.00 0.00 0.00 64 1018.4
20260831075624 58 5 0.0 0.0 0.00 0.00 0.00 64 1018.3
20260831075334 58 5 0.0 0.0 0.00 0.00 0.00 64 1018.3
20260831074612 59 5 0.0 0.0 0.00 0.00 0.00 64 1018.2
20260831074106 59 5 0.0 0.0 0.00 0.00 0.00 64 1018.1
20260831074050 59 5 0.0 0.0 0.00 0.00 0.00 64 1018.3
20260831073054 59 5 0.0 0.0 0.00 0.00 0.00 64 1018.2
20260831072548 59 5 0.0 0.0 0.00 0.00 0.00 64 1018.2
20260831072041 59 5 0.0 0.0 0.00 0.00 0.00 64 1018.2
20260831071803 59 5 0.0 0.0 0.00 0.00 0.00 64 1018.0
20260831071030 59 5 0.0 0.0 0.00 0.00 0.00 64 1017.9
20260831070524 58 5 0.0 0.0 0.00 0.00 0.00 65 1018.0
20260831070238 58 5 0.0 0.0 0.00 0.00 0.00 65 1018.0
20260831065512 58 5 0.0 0.0 0.00 0.00 0.00 66 1018.0
20260831065007 58 5 0.0 0.0 0.00 0.00 0.00 66 1018.1
20260831064501 58 5 0.0 0.0 0.00 0.00 0.00 66 1018.0
20260831063954 57 5 0.0 0.0 0.00 0.00 0.00 67 1018.0
20260831063448 57 5 0.0 0.0 0.00 0.00 0.00 67 1018.0
20260831062942 57 5 0.0 0.0 0.00 0.00 0.00 67 1017.9
20260831062659 57 5 0.0 0.0 0.00 0.00 0.00 67 1018.0
20260831061930 57 5 0.0 0.0 0.00 0.00 0.00 67 1017.9
20260831061424 57 5 0.0 0.0 0.00 0.00 0.00 67 1017.9
20260831060918 57 5 0.0 0.0 0.00 0.00 0.00 66 1017.8
20260831060412 57 5 0.0 0.0 0.00 0.00 0.00 66 1017.6
20260831055906 57 5 0.0 0.0 0.00 0.00 0.00 66 1017.7
20260831055625 57 5 0.0 0.0 0.00 0.00 0.00 66 1017.5
20260831054854 57 5 0.0 0.0 0.00 0.00 0.00 66 1017.5
20260831054348 57 5 0.0 0.0 0.00 0.00 0.00 66 1017.4
20260831054104 57 5 0.0 0.0 0.00 0.00 0.00 66 1017.3
20260831053336 58 5 0.0 0.0 0.00 0.00 0.00 66 1017.2
20260831053056 58 5 0.0 0.0 0.00 0.00 0.00 66 1017.3
20260831052324 58 5 0.0 0.0 0.00 0.00 0.00 66 1017.3
20260831051818 59 5 0.0 0.0 0.00 0.00 0.00 66 1017.3
20260831051541 59 5 0.0 0.0 0.00 0.00 0.00 65 1017.3
20260831051039 59 5 0.0 0.0 0.00 0.00 0.00 65 1017.2
20260831050315 59 5 0.0 0.0 0.00 0.00 0.00 65 1017.2
20260831045810 60 5 0.0 0.0 0.00 0.00 0.00 65 1017.0
20260831045309 60 5 0.0 0.0 0.00 0.00 0.00 65 1017.0
20260831044808 60 5 0.0 0.0 0.00 0.00 0.00 65 1017.1
20260831044307 60 5 0.0 0.0 0.00 0.00 0.00 65 1017.1
20260831043804 60 5 0.0 0.0 0.00 0.00 0.00 65 1017.0
20260831043301 61 5 0.0 0.0 0.00 0.00 0.00 65 1017.0
20260831042800 61 5 0.0 0.0 0.00 0.00 0.00 64 1017.0
20260831042258 61 5 0.0 0.0 0.00 0.00 0.00 64 1016.8
20260831041802 62 5 0.0 0.0 0.00 0.00 0.00 64 1017.0
20260831041758 61 5 0.0 0.0 0.00 0.00 0.00 64 1016.9
20260831041659 62 5 0.0 0.0 0.00 0.00 0.00 64 1017.0
20260831040254 62 5 0.0 0.0 0.00 0.00 0.00 64 1017.4
20260831035752 62 5 0.0 0.0 0.00 0.00 0.00 63 1016.9
20260831035250 62 5 0.0 0.0 0.00 0.00 0.00 63 1016.9
20260831034748 63 5 0.0 0.0 0.00 0.00 0.00 63 1016.9
20260831034513 63 5 0.0 0.0 0.00 0.00 0.00 63 1016.9
20260831033747 63 5 0.0 0.0 0.00 0.00 0.00 63 1016.9
20260831033246 63 5 0.0 0.0 0.00 0.00 0.00 63 1016.9
20260831032741 63 5 0.0 0.0 0.00 0.00 0.00 63 1016.7
20260831032500 64 5 0.0 0.0 0.00 0.00 0.00 62 1016.6
20260831031728 64 5 0.0 0.0 0.00 0.00 0.00 62 1016.6
20260831031221 64 5 0.0 0.0 0.00 0.00 0.00 62 1016.6
20260831030716 64 5 0.0 0.0 0.00 0.00 0.00 62 1016.7
20260831030210 64 5 0.0 0.0 0.00 0.00 0.00 62 1016.7
20260831025704 64 5 0.0 0.0 0.00 0.00 0.00 61 1016.8
20260831025158 64 5 0.0 0.0 0.00 0.00 0.00 61 1016.8
20260831024652 65 5 0.0 0.0 0.00 0.00 0.00 61 1016.9
20260831024146 65 5 0.0 0.0 0.00 0.00 0.00 61 1017.0
20260831023640 65 5 0.0 0.0 0.00 0.00 0.00 61 1017.1
20260831023134 65 5 0.0 0.0 0.00 0.00 0.00 60 1017.3
20260831022629 65 5 0.0 0.0 0.00 0.00 0.00 60 1017.1
20260831022122 65 5 0.0 1.0 0.00 0.00 0.00 59 1017.1
20260831021849 65 5 0.0 3.0 0.00 0.00 0.00 59 1017.2
20260831021110 66 346 1.0 3.0 0.00 0.00 0.00 59 1017.3
20260831021052 66 346 1.0 4.0 0.00 0.00 0.00 58 1017.1
20260831020058 67 61 1.0 4.0 0.00 0.00 0.00 59 1017.0
20260831015552 67 0 1.0 7.0 0.00 0.00 0.00 57 1016.9
20260831015046 67 12 1.0 7.0 0.00 0.00 0.00 57 1016.9
20260831014540 67 179 0.0 5.0 0.00 0.00 0.00 55 1016.7
20260831014034 67 94 0.0 0.0 0.00 0.00 0.00 57 1016.6
20260831013528 67 174 0.0 0.0 0.00 0.00 0.00 62 1016.3
20260831013022 67 174 0.0 0.0 0.00 0.00 0.00 62 1015.8
20260831012516 68 174 0.0 0.0 0.00 0.00 0.00 61 1015.7
20260831012010 68 174 0.0 0.0 0.00 0.00 0.00 62 1015.6
20260831011504 68 174 0.0 0.0 0.00 0.00 0.00 61 1015.5
20260831010958 68 174 0.0 0.0 0.00 0.00 0.00 62 1015.5
20260831010452 68 174 0.0 0.0 0.00 0.00 0.00 61 1015.3